Location: Frizzleburg
(41.0764°N, 80.4548°W)
Time: 03:07:30
(UTC+00:00)

SL-16 R/B - Pass Details

Date: 17 November 2019
Orbit: 842 x 846 km, 71.0° (Epoch: 14 December)

Event Time Altitude Azimuth Distance (km) Brightness Sun altitude
Exits shadow 09:58:12 13° 350° (N) 2,275 4.3 -25.1°
Maximum altitude 10:03:02 44° 60° (ENE) 1,155 3.2 -24.1°
Drops below altitude 10° 10:08:25 10° 132° (SE) 2,462 5.3 -23.1°
Sets 10:10:58 0° 139° (SE) 3,393 6.0 -22.7°
